CZ-4 DEB

Satellite information

Favourite Embed

Satellite Type and Status

DEBRISIN ORBIT

Key statistics

Satellite CZ-4 DEB at a glance.

Uptime

9399

Days in orbit

Revolutions

≈ 14.5

Per day

Orbit

SSO

Sun Synchronous Orbit

Inclination

98.6

Latest

Satellite identification and parameters

Extended collection of information and parameters for CZ-4 DEB.

Object identification

Identified? True

Debris? True

Object name: CZ-4 DEB

International designator: 1999-057NK

Object number (NORAD): 29040

Object ID (CCSDS): 29040

Country: PEOPLES REPUBLIC OF CHINA (PRC)

Current information (Y/N): Y

RCS size: SMALL

Orbital parameters

Period: 99.479 minutes

Inclination: 98.6314 deg

SMA: 7111.817 km

Apoapsis: 787.24 km

Periapsis: 680.124 km

RAAN: 229.865 deg

Eccentricy: 0.0075308

Argument of periapsis: 169.349 deg

Mean anomaly: 190.9319 deg

Mean motion: 14.47544421 rev/day

Mean motion (dot): 0.00000635 rev/day2

B* drag term: 0.00017943 1/REarth

Two-line elements (TLE)

Creation date: July 7, 2025, 10:56 p.m.

Reference frame: TEME

Reference center: EARTH

Epoch: July 7, 2025, 7:41 p.m. UTC

TLE line 0: 0 CZ-4 DEB

TLE line 1: 1 29040U 99057NK 25188.82040342 .00000635 00000-0 17943-3 0 9993

TLE line 2: 2 29040 98.6314 229.8650 0075308 169.3490 190.9319 14.47544421171462

Live tracking on map

Real-time ground track for satellite CZ-4 DEB.

In-orbit conjunctions

A list of the most updated potential collisions computed for object CZ-4 DEB.

Target Orbit TCA Probability of collision Miss distance Type
NOAA 16 DEB SSO 2025-06-17 01:30:47 0.0001227018 164.0 (m) DEBRIS
METEOR 1-22 DEB LEO 2024-06-02 08:05:53 0.0001081708 176.0 (m) DEBRIS

Associated space launch

The CBERS (China Brazil Earth Resources Satellite) or ZY 1 (Zi Yuan) satellites are designed for global coverage and include cameras to make optical observations and a data collecting system to gather data on the environment. They are unique systems due to the use of on-board sensors which combine features that are especially designed to resolve the broad range of space and time scales involved in the monitoring and preservation of the ecosystem. They are operated jointly by the China Centre for Resources Satellite Data and Application (CRESDA) and the Brazilian INPE (Instituto Nacional de Pesquisas Espaciais, National Institute of Space Research).

CZ-4 DEB was lifted into orbit during the mission ‘Long March 4B | Zi Yuan 1-1’, on board a Long March 4B space rocket.

The launch took place on Oct. 14, 1999, 3:15 a.m. from Launch Complex 7.

For more information about the launch, click the button.

Launch to space Long March 4B | Zi Yuan 1-1
Long March 4B | Zi Yuan 1-1

Agency: N/A

Status: Launch Successful

Launch date: Oct. 14, 1999, 3:15 a.m. UTC

Rocket: Long March 4B

Launch pad: Launch Complex 7

Location: Taiyuan Satellite Launch Center, People's Republic of China

...

Latest news about this satellite

There are no fresh news available about this satellite. Check back as we update our databases every day.


Newsletter sign-up

Weekly statistics, charts and insights to help you stay on top of the space industry.